Location: Bourg-d�Oueil
(42.8588°N, 0.4991°E)
Time: 18:52:45
(UTC+00:00)

Lacrosse 5 - Pass Details

Date: 16 June 2021
Orbit: 715 x 724 km, 57.0° (Epoch: 28 July)

Event Time Altitude Azimuth Distance (km) Brightness Sun altitude
Rises 21:05:24 0° 311° (NW) 3,125 7.1 -12.7°
Reaches altitude 10° 21:07:48 10° 309° (NW) 2,203 5.8 -12.9°
Maximum altitude 21:12:50 68° 228° (SW) 775 2.0 -13.5°
Enters shadow 21:16:11 21° 149° (SSE) 1,582 3.0 -13.9°
